Terminal Aerodrome Forecast
Issued by NWS Billings, MT

Home | Current Version | Previous Version | Graphics & Text | Print | Product List | Glossary On
Versions: 1 2 3 4 5 6 7 8 9 10 11 12 13 14 15 16 17 18 19 20 21 22 23 24 25 26 27 28 29 30 31 32
272
FTUS45 KBYZ 260520
TAFMLS
TAF
KMLS 260520Z 2606/2706 VRB06KT P6SM BKN100
     FM261000 26011G22KT P6SM BKN050
     FM262000 27015G26KT P6SM VCSH BKN040=

USA.gov is the U.S. government's official web portal to all federal, state and local government web resources and services.